Previsão horária em Alimkina

Hoje, 14 Junho, Segunda-feira

Tempo Temperatura Precipitação Vento Pressão Humidade
00:00 +16°C° 0 mm 2 m/s 738 mmHg 93%
01:00 +15°C° 0 mm 1 m/s 738 mmHg 93%
02:00 +15°C° 0 mm 1 m/s 739 mmHg 93%
03:00 +16°C° 0 mm 1 m/s 739 mmHg 93%
04:00 +16°C° 0 mm 1 m/s 739 mmHg 92%
05:00 +18°C° 0 mm 1 m/s 740 mmHg 92%
06:00 +19°C° 0 mm 1 m/s 740 mmHg 88%
07:00 +21°C° 0 mm 1 m/s 740 mmHg 84%
08:00 +22°C° 0 mm 1 m/s 741 mmHg 79%
09:00 +23°C° 0.1 mm 2 m/s 741 mmHg 75%
10:00 +24°C° 0.1 mm 2 m/s 741 mmHg 71%
11:00 +25°C° 0.1 mm 2 m/s 742 mmHg 67%
12:00 +25°C° 0 mm 1 m/s 742 mmHg 65%
13:00 +25°C° 0 mm 1 m/s 742 mmHg 63%
14:00 +26°C° 0 mm 1 m/s 742 mmHg 61%
15:00 +26°C° 0.1 mm 1 m/s 742 mmHg 63%
16:00 +26°C° 0.1 mm 1 m/s 742 mmHg 65%
17:00 +26°C° 0.1 mm 1 m/s 741 mmHg 67%
18:00 +24°C° 0.3 mm 1 m/s 741 mmHg 73%
19:00 +22°C° 0.3 mm 1 m/s 741 mmHg 78%
20:00 +20°C° 0.3 mm 1 m/s 741 mmHg 83%
21:00 +18°C° 0.3 mm 0 m/s 741 mmHg 84%
22:00 +17°C° 0.3 mm 0 m/s 742 mmHg 85%
23:00 +16°C° 0.3 mm 0 m/s 742 mmHg 86%

Amanhã, 15 Junho, Terça-feira

Tempo Temperatura Precipitação Vento Pressão Humidade
00:00 +16°C° 0 mm 0 m/s 741 mmHg 87%
01:00 +16°C° 0 mm 0 m/s 741 mmHg 87%
02:00 +16°C° 0 mm 0 m/s 741 mmHg 88%
03:00 +16°C° 0 mm 0 m/s 741 mmHg 88%
04:00 +17°C° 0 mm 0 m/s 741 mmHg 87%
05:00 +17°C° 0 mm 0 m/s 741 mmHg 87%
06:00 +19°C° 0 mm 0 m/s 741 mmHg 84%
07:00 +20°C° 0 mm 0 m/s 741 mmHg 80%
08:00 +21°C° 0 mm 0 m/s 741 mmHg 77%
09:00 +22°C° 0.6 mm 0 m/s 741 mmHg 72%
10:00 +25°C° 0.6 mm 1 m/s 741 mmHg 68%
11:00 +26°C° 0.6 mm 1 m/s 741 mmHg 64%
12:00 +26°C° 0.3 mm 1 m/s 740 mmHg 63%
13:00 +24°C° 0.3 mm 0 m/s 740 mmHg 62%
14:00 +25°C° 0.3 mm 0 m/s 740 mmHg 61%
15:00 +26°C° 0.5 mm 1 m/s 739 mmHg 65%
16:00 +26°C° 0.5 mm 1 m/s 739 mmHg 69%
17:00 +26°C° 0.5 mm 1 m/s 739 mmHg 73%
18:00 +24°C° 0.4 mm 1 m/s 739 mmHg 77%
19:00 +22°C° 0.4 mm 1 m/s 739 mmHg 80%
20:00 +20°C° 0.4 mm 2 m/s 738 mmHg 84%
21:00 +19°C° 0.2 mm 2 m/s 738 mmHg 86%
22:00 +18°C° 0.2 mm 2 m/s 738 mmHg 88%
23:00 +18°C° 0.2 mm 2 m/s 738 mmHg 90%

Depois de amanhã, 16 Junho, Quarta-feira

Tempo Temperatura Precipitação Vento Pressão Humidade
00:00 +17°C° 0.1 mm 2 m/s 738 mmHg 91%
01:00 +17°C° 0.1 mm 2 m/s 738 mmHg 92%
02:00 +17°C° 0.1 mm 2 m/s 738 mmHg 93%
03:00 +17°C° 0 mm 2 m/s 738 mmHg 93%
04:00 +17°C° 0 mm 2 m/s 738 mmHg 93%
05:00 +17°C° 0 mm 2 m/s 738 mmHg 93%
06:00 +19°C° 0 mm 2 m/s 739 mmHg 88%
07:00 +20°C° 0 mm 3 m/s 739 mmHg 82%
08:00 +21°C° 0 mm 4 m/s 739 mmHg 77%
09:00 +22°C° 0 mm 4 m/s 740 mmHg 73%
10:00 +23°C° 0 mm 4 m/s 740 mmHg 69%
11:00 +23°C° 0 mm 5 m/s 740 mmHg 65%
12:00 +25°C° 0 mm 5 m/s 741 mmHg 64%
13:00 +25°C° 0 mm 5 m/s 741 mmHg 63%
14:00 +25°C° 0 mm 4 m/s 741 mmHg 62%
15:00 +23°C° 0.1 mm 4 m/s 741 mmHg 67%
16:00 +23°C° 0.1 mm 4 m/s 742 mmHg 71%
17:00 +22°C° 0.1 mm 4 m/s 742 mmHg 75%
18:00 +21°C° 0 mm 3 m/s 742 mmHg 77%
19:00 +19°C° 0 mm 3 m/s 743 mmHg 80%
20:00 +18°C° 0 mm 2 m/s 743 mmHg 83%
21:00 +17°C° 0 mm 3 m/s 744 mmHg 82%
22:00 +16°C° 0 mm 3 m/s 744 mmHg 82%
23:00 +14°C° 0 mm 3 m/s 744 mmHg 81%

17 Junho, Quinta-feira

Tempo Temperatura Precipitação Vento Pressão Humidade
00:00 +13°C° 0 mm 3 m/s 745 mmHg 79%
01:00 +13°C° 0 mm 2 m/s 745 mmHg 77%
02:00 +13°C° 0 mm 2 m/s 746 mmHg 75%
03:00 +13°C° 0 mm 2 m/s 746 mmHg 76%
04:00 +13°C° 0 mm 2 m/s 747 mmHg 77%
05:00 +14°C° 0 mm 2 m/s 747 mmHg 79%
06:00 +15°C° 0 mm 2 m/s 747 mmHg 74%
07:00 +17°C° 0 mm 3 m/s 748 mmHg 69%
08:00 +19°C° 0 mm 3 m/s 748 mmHg 63%
09:00 +19°C° 0 mm 3 m/s 748 mmHg 60%
10:00 +20°C° 0 mm 3 m/s 748 mmHg 57%
11:00 +21°C° 0 mm 3 m/s 749 mmHg 53%
12:00 +22°C° 0 mm 3 m/s 749 mmHg 53%
13:00 +22°C° 0 mm 3 m/s 749 mmHg 52%
14:00 +22°C° 0 mm 3 m/s 749 mmHg 52%
15:00 +22°C° 0 mm 3 m/s 749 mmHg 56%
16:00 +23°C° 0 mm 2 m/s 749 mmHg 61%
17:00 +23°C° 0 mm 2 m/s 749 mmHg 65%
18:00 +20°C° 0 mm 2 m/s 749 mmHg 70%
19:00 +19°C° 0 mm 1 m/s 749 mmHg 74%
20:00 +16°C° 0 mm 1 m/s 750 mmHg 78%
21:00 +16°C° 0 mm 1 m/s 750 mmHg 79%
22:00 +15°C° 0 mm 1 m/s 750 mmHg 79%
23:00 +15°C° 0 mm 1 m/s 750 mmHg 79%

18 Junho, Sexta-feira

Tempo Temperatura Precipitação Vento Pressão Humidade
00:00 +15°C° 0 mm 1 m/s 750 mmHg 80%
01:00 +14°C° 0 mm 1 m/s 750 mmHg 80%
02:00 +14°C° 0 mm 1 m/s 751 mmHg 80%
03:00 +15°C° 0 mm 1 m/s 751 mmHg 80%
04:00 +15°C° 0 mm 1 m/s 751 mmHg 80%
05:00 +16°C° 0 mm 1 m/s 751 mmHg 81%
06:00 +18°C° 0 mm 1 m/s 751 mmHg 76%
07:00 +20°C° 0 mm 1 m/s 752 mmHg 72%
08:00 +20°C° 0 mm 0 m/s 752 mmHg 67%
09:00 +21°C° 0 mm 0 m/s 752 mmHg 64%
10:00 +22°C° 0 mm 0 m/s 752 mmHg 60%
11:00 +23°C° 0 mm 0 m/s 752 mmHg 56%
12:00 +23°C° 0 mm 0 m/s 752 mmHg 55%
13:00 +25°C° 0 mm 1 m/s 752 mmHg 55%
14:00 +26°C° 0 mm 1 m/s 752 mmHg 54%
15:00 +25°C° 0 mm 1 m/s 751 mmHg 57%
16:00 +25°C° 0 mm 1 m/s 751 mmHg 59%
17:00 +25°C° 0 mm 1 m/s 751 mmHg 62%
18:00 +23°C° 0 mm 1 m/s 751 mmHg 67%
19:00 +22°C° 0 mm 1 m/s 751 mmHg 72%
20:00 +20°C° 0 mm 1 m/s 751 mmHg 76%
21:00 +19°C° 0 mm 1 m/s 751 mmHg 78%
22:00 +19°C° 0 mm 1 m/s 751 mmHg 80%
23:00 +18°C° 0 mm 1 m/s 752 mmHg 82%

19 Junho, Sábado

Tempo Temperatura Precipitação Vento Pressão Humidade
00:00 +17°C° 0 mm 2 m/s 752 mmHg 84%
01:00 +16°C° 0 mm 2 m/s 752 mmHg 86%
02:00 +16°C° 0 mm 2 m/s 752 mmHg 88%
03:00 +16°C° 0 mm 2 m/s 752 mmHg 88%
04:00 +17°C° 0 mm 2 m/s 752 mmHg 88%
05:00 +18°C° 0 mm 1 m/s 752 mmHg 87%
06:00 +19°C° 0 mm 2 m/s 752 mmHg 83%
07:00 +20°C° 0 mm 2 m/s 752 mmHg 79%
08:00 +23°C° 0 mm 2 m/s 752 mmHg 74%
09:00 +24°C° 0 mm 2 m/s 752 mmHg 71%
10:00 +25°C° 0 mm 2 m/s 752 mmHg 68%
11:00 +26°C° 0 mm 2 m/s 752 mmHg 64%
12:00 +26°C° 0 mm 2 m/s 752 mmHg 63%
13:00 +26°C° 0 mm 2 m/s 752 mmHg 62%
14:00 +27°C° 0 mm 2 m/s 751 mmHg 60%
15:00 +27°C° 0 mm 2 m/s 751 mmHg 64%
16:00 +26°C° 0 mm 2 m/s 751 mmHg 67%
17:00 +26°C° 0 mm 2 m/s 751 mmHg 70%
18:00 +25°C° 0 mm 2 m/s 751 mmHg 75%
19:00 +23°C° 0 mm 2 m/s 751 mmHg 79%
20:00 +20°C° 0 mm 2 m/s 751 mmHg 84%
21:00 +20°C° 0 mm 2 m/s 751 mmHg 85%
22:00 +19°C° 0 mm 2 m/s 751 mmHg 87%
23:00 +18°C° 0 mm 2 m/s 751 mmHg 89%
Mostrar mais